Location: Gleizolles
(44.4833°N, 6.7667°E)
Time: 20:23:44
(UTC+00:00)

Envisat - Pass Details

Date: 07 December 2022
Orbit: 763 x 765 km, 98.2° (Epoch: 05 February)

Event Time Altitude Azimuth Distance (km) Brightness Sun altitude
Rises 05:10:31 0° 360° (N) 3,244 6.1 -18.0°
Reaches altitude 10° 05:13:23 10° 343° (NNW) 2,313 5.2 -17.5°
Enters shadow 05:13:43 11° 341° (NNW) 2,222 5.1 -17.4°
